Regional Weather Roundup
Issued by NWS

Home | Current Version | Previous Version | Text Only | Print | Product List | Glossary Off
Versions: 1 2 3 4 5 6 7 8 9 10 11 12 13 14 15 16 17 18 19 20 21 22 23 24 25 26 27 28 29 30 31 32 33 34 35 36 37 38 39 40 41 42 43 44 45 46 47 48 49 50

000
ASUS44 KMEG 221400
RWRTN
TENNESSEE HOURLY STATE WEATHER ROUNDUP
NATIONAL WEATHER SERVICE MEMPHIS TN
900 AM CDT SAT APR 22 2017

TNZ002-004-019-021-049-052-054-088>092-221500-
WEST TENNESSEE

CITY           SKY/WX    TMP DP  RH WIND       PRES   REMARKS
MEMPHIS INTL   CLOUDY    62  59  90 SE5       29.84S
NWS MEMPHIS      N/A     60 N/A N/A MISG        N/A
JACKSON        CLOUDY    57  56  96 N3        29.87R
DYERSBURG      CLOUDY    55  53  93 N9        29.92R
PARIS          CLOUDY    52  52 100 E6        29.90R
$$

TNZ008-025-027-028-033-062-065-066-221500-
NORTH MIDDLE TENNESSEE

CITY           SKY/WX    TMP DP  RH WIND       PRES   REMARKS
NASHVILLE      CLOUDY    57  55  93 CALM      29.90R
CLARKSVILLE    CLOUDY    55  51  86 E9        29.90R
SMYRNA         CLOUDY    57  55  93 CALM      29.90R
CROSSVILLE     RAIN      56  55  97 N9        29.95R VSB 1
$$

TNZ061-075-076-078-094-096-097-221500-
SOUTH MIDDLE TENNESSEE

CITY           SKY/WX    TMP DP  RH WIND       PRES   REMARKS
WINCHESTER     CLOUDY    61  59  94 E5        29.94F
$$

TNZ017-018-042-046-047-221500-
NORTHEAST TENNESSEE

CITY           SKY/WX    TMP DP  RH WIND       PRES   REMARKS
TRI CITIES     CLOUDY    65  61  87 CALM      29.90S
$$

TNZ012-013-036-069-073-074-221500-
CENTRAL EAST TENNESSEE

CITY           SKY/WX    TMP DP  RH WIND       PRES   REMARKS
KNOXVILLE      CLOUDY    67  61  81 SW12      29.88R
OAK RIDGE      LGT RAIN  65  62  90 VRB5      29.91R
GATLINBURG     MOSUNNY   64  63  94 CALM      29.88S
$$

TNZ083-085-099-221500-
SOUTHEAST TENNESSEE

CITY           SKY/WX    TMP DP  RH WIND       PRES   REMARKS
CHATTANOOGA    PTSUNNY   69  56  62 SW12G24   29.93R
$$

SKY/WX REPORTED AS FAIR MEANS FEW OR NO CLOUDS BELOW
12 THOUSAND FEET.





USA.gov is the U.S. government's official web portal to all federal, state and local government web resources and services.